Lapse_Rate
8.4 8.7 8.9 9.0 9.1 9.0 9.0 9.0 8.3 7.0 6.5 7.1 6.4 6.2 6.8 7.9 6.0 6.2 4.8 5.0 4.0 2.5 2.5 1.8 2.3 2.2 2.3 2.4 2.5 1.9 1.7 2.1 4.0 5.0 5.4 4.6 4.7 4.3 4.6 4.5 4.3 3.3 2.8
8.1 8.4 8.7 8.8 8.8 8.9 8.9 9.1 8.9 8.3 6.6 6.2 8.1 8.4 8.0 8.2 8.2 7.7 6.5 5.9 5.3 4.1 2.9 1.9 2.0 1.8 2.0 2.2 2.2 1.9 1.3 1.3 2.8 4.1 5.1 5.6 4.9 5.0 5.3 4.9 3.6 2.4 1.7
7.8 8.1 8.4 8.5 8.8 8.9 8.8 8.8 8.5 8.3 6.0 5.3 6.5 6.3 7.8 7.9 8.0 8.3 8.1 8.3 6.7 5.7 3.2 3.0 2.4 2.2 2.4 2.0 1.7 2.3 1.9 1.6 2.0 3.6 6.7 6.1 5.7 5.1 4.6 5.7 5.7 4.1 4.0
8.1 8.2 8.4 8.5 8.7 8.9 9.2 9.3 9.4 9.1 8.2 6.6 5.4 5.6 7.0 7.0 7.3 7.4 6.3 8.4 8.4 7.0 3.7 2.6 2.9 2.7 2.5 2.1 1.8 2.3 2.3 3.3 2.9 3.6 7.4 5.2 6.3 7.2 6.9 6.2 5.2 5.6 5.1
7.9 8.1 8.4 8.6 8.9 9.0 9.0 9.1 9.1 9.0 9.2 8.7 6.7 5.8 5.4 5.7 6.3 5.0 4.8 4.6 5.5 5.4 3.4 2.9 2.5 2.2 2.4 2.8 2.1 2.0 2.0 3.0 4.6 6.4 6.4 6.7 7.2 6.6 7.2 6.9 6.5 5.5 5.6
8.0 8.3 8.6 8.8 8.8 9.0 8.9 8.8 9.1 9.0 8.7 9.0 8.7 6.3 5.9 6.6 7.8 5.8 5.7 4.1 4.8 3.8 3.9 2.6 3.0 3.1 3.1 3.1 3.1 2.5 3.1 3.8 6.0 6.4 6.5 6.5 6.4 6.3 6.9 7.1 7.0 6.6 5.5
7.9 8.1 8.2 8.4 8.7 8.6 7.7 8.7 9.0 8.7 8.1 7.9 7.4 6.3 6.5 7.3 7.8 6.3 5.8 6.1 5.0 5.9 5.7 4.4 4.0 3.4 4.0 3.7 4.1 4.1 4.5 4.9 5.5 5.8 5.6 5.9 5.8 6.7 6.7 6.5 7.2 7.4 7.5
7.9 8.0 8.3 8.5 8.6 8.2 6.5 7.0 8.8 8.7 6.9 7.5 7.6 6.7 6.5 7.4 8.1 7.6 7.2 7.2 6.8 7.5 7.1 6.6 6.0 5.9 5.8 5.4 5.1 5.9 6.0 5.2 4.9 4.6 4.0 4.5 5.6 5.1 6.1 6.5 6.5 6.5 6.6
7.8 8.0 8.3 8.5 8.6 8.4 5.9 5.4 7.0 8.0 6.9 6.9 7.4 7.4 7.8 7.0 7.5 7.8 7.4 7.5 7.5 7.8 6.9 7.0 7.4 6.7 6.2 5.8 5.8 6.1 5.0 4.3 3.3 3.4 3.5 3.3 2.8 3.0 3.7 4.2 4.3 5.6 7.0
7.8 8.1 8.3 8.5 8.6 8.3 6.3 5.8 5.9 6.5 7.2 6.6 6.7 7.3 7.3 7.6 7.4 6.9 6.8 7.1 6.6 6.4 6.4 6.5 7.7 6.5 6.1 5.5 5.9 6.1 5.2 4.8 4.5 4.5 4.1 3.3 2.9 2.9 3.0 3.0 3.1 3.7 5.1
7.8 8.1 8.3 8.6 8.7 8.7 7.7 6.1 7.2 6.9 6.9 6.7 7.1 7.4 7.9 8.0 7.8 6.9 6.6 6.4 6.3 6.6 7.4 8.0 7.4 5.9 5.5 5.9 7.3 7.5 7.2 6.4 5.9 5.5 4.3 3.5 3.6 3.3 2.9 3.0 4.0 4.2 4.3
8.0 8.2 8.3 8.5 8.6 8.7 8.7 7.2 7.9 8.0 8.4 7.9 8.6 8.7 9.1 9.2 9.2 8.6 8.4 8.2 8.1 7.3 8.4 8.8 8.1 5.6 4.0 5.1 6.7 7.9 7.8 7.6 7.1 6.8 5.6 4.4 4.8 4.7 3.7 3.5 3.4 3.0 3.1
8.0 8.2 8.3 8.3 8.5 8.6 8.8 8.4 8.5 9.0 9.2 9.3 9.1 9.1 9.0 8.4 8.5 8.7 8.8 8.5 8.3 8.6 9.0 8.5 8.4 5.9 3.9 4.7 6.2 8.1 8.0 8.0 7.8 7.6 6.9 5.3 4.9 5.0 5.2 4.2 3.2 2.8 3.2
7.9 8.1 8.1 8.2 8.4 8.7 8.8 8.7 8.8 8.8 9.2 9.2 8.9 8.9 8.7 8.6 8.6 8.8 8.6 8.3 8.5 7.8 8.8 8.3 7.0 5.5 4.3 4.7 6.7 8.6 8.6 8.2 7.9 7.2 8.4 5.0 4.5 4.9 6.2 5.7 4.2 3.7 3.5
7.8 8.0 8.0 8.0 8.3 8.6 8.8 9.0 9.0 9.0 9.2 9.0 8.8 8.5 8.8 8.5 8.2 8.3 8.4 8.2 7.0 7.4 8.1 8.2 5.9 4.8 3.5 4.3 6.4 8.9 8.1 7.0 5.1 4.8 6.1 4.6 3.8 4.6 7.1 6.5 5.4 3.9 3.4
7.8 8.0 8.1 8.1 8.4 8.6 8.7 8.9 9.0 9.1 9.2 9.0 8.8 8.7 7.8 7.5 6.7 7.7 7.7 7.4 6.6 5.5 5.6 7.5 6.1 3.9 4.8 4.9 6.8 8.7 8.3 6.9 4.5 3.0 3.1 3.3 1.8 2.5 4.6 5.3 5.1 4.7 4.3
7.8 7.9 7.8 8.3 8.5 8.7 8.8 8.8 8.9 9.3 9.1 8.9 8.6 7.0 6.3 5.5 4.9 5.6 5.9 5.5 5.1 4.8 4.3 5.0 6.0 4.2 4.0 4.7 6.2 8.7 6.8 6.3 5.2 2.9 2.0 2.4 2.3 1.8 2.3 3.0 3.5 3.7 4.8
7.4 7.7 7.1 7.6 8.2 8.5 8.7 9.0 9.2 9.0 8.8 7.9 7.4 7.0 6.4 6.3 5.3 4.6 5.2 5.8 5.2 4.5 4.1 4.3 4.3 3.9 4.2 3.9 4.0 6.4 7.0 7.4 5.6 3.9 2.7 1.9 1.6 2.4 1.6 1.1 1.2 1.3 2.6
5.8 4.7 6.0 5.4 6.1 7.6 8.5 8.9 8.9 8.8 8.3 6.2 4.9 4.5 4.3 4.0 4.4 3.8 5.0 5.8 6.5 6.5 5.8 5.5 4.8 3.7 3.5 4.3 3.9 3.4 4.7 5.8 5.4 4.8 4.5 4.7 4.5 6.9 3.5 0.6 0.1 0.1 0.7
3.2 3.6 3.9 4.9 5.7 6.2 8.4 8.6 8.5 8.2 7.9 6.7 5.4 5.0 4.6 3.8 2.9 5.1 4.9 6.2 7.1 7.3 7.7 6.6 5.7 5.6 3.7 5.6 4.4 3.1 2.8 4.6 4.9 4.2 4.4 8.3 8.2 9.4 7.0 2.4 2.0 1.1 1.4
3.1 3.4 4.0 4.4 5.2 6.2 6.7 6.8 6.5 5.2 6.4 7.1 7.5 6.6 5.9 6.2 6.4 6.2 6.3 6.6 7.1 7.0 8.0 7.7 6.3 5.0 4.2 3.7 5.8 5.1 3.3 5.0 6.1 5.6 5.5 6.9 9.4 9.3 9.4 7.2 5.1 5.7 3.8
4.4 4.5 4.4 5.1 5.9 7.2 7.1 5.7 4.9 6.6 6.7 5.2 4.9 5.2 6.6 7.5 7.6 7.3 7.5 7.5 7.6 7.1 7.3 7.5 7.1 5.6 4.4 5.5 7.0 8.8 8.4 8.0 7.1 7.1 7.3 7.6 9.4 9.4 9.4 8.2 8.3 5.7 3.2
5.2 5.5 5.3 6.4 8.1 8.8 8.5 6.6 6.3 6.0 5.5 4.7 3.8 5.3 6.7 7.9 8.0 7.8 7.6 7.8 7.6 7.6 7.9 7.4 7.2 5.8 4.6 4.5 6.5 8.1 8.9 8.2 7.2 7.9 8.8 9.4 9.4 9.0 7.6 9.5 9.4 5.7 4.9
6.3 6.9 7.9 8.5 8.8 9.2 9.3 8.6 8.4 7.4 6.8 7.0 7.9 8.6 8.7 8.3 8.7 7.9 5.8 4.9 5.5 6.9 7.3 7.5 6.3 6.3 5.4 5.8 6.5 6.9 6.9 7.6 7.5 7.7 6.9 7.2 8.6 7.4 6.5 7.5 7.7 7.1 6.6
7.1 8.0 8.6 8.7 8.6 9.1 9.1 9.4 9.4 9.5 9.2 9.0 8.8 8.0 7.8 5.9 5.2 4.8 5.2 4.8 4.5 5.5 5.1 5.8 6.5 5.5 5.9 7.8 9.0 8.7 7.4 7.4 7.6 6.7 6.2 6.6 7.0 7.4 7.5 7.6 7.7 7.9 7.8
7.6 8.2 8.7 8.3 8.5 8.9 8.9 9.2 9.4 9.3 9.1 8.9 8.6 8.5 8.5 7.6 6.0 5.4 4.9 6.2 6.0 6.2 5.9 5.7 6.1 7.3 9.1 9.4 9.4 9.3 9.4 9.6 9.5 7.5 7.2 7.2 7.3 7.6 7.8 7.5 7.6 7.7 7.7
Wind_Speed
7 5 5 7 8 10 11 11 10 11 9 6 6 6 6 3 4 9 16 16 15 16 13 9 7 9 8 8 9 8 10 8 8 7 8 4 5 8 8 8 10 9 5
9 7 5 8 8 9 10 10 11 11 10 9 7 5 2 3 3 5 9 14 15 14 13 9 8 9 7 8 8 9 8 5 8 5 6 4 4 3 5 4 5 6 4
4 6 7 8 6 6 7 8 10 11 11 12 8 7 6 5 6 5 6 6 13 13 13 13 9 9 7 6 8 8 9 8 8 7 4 4 3 10 4 4 7 9 7
6 7 6 5 5 6 7 7 7 9 9 10 9 11 8 6 6 8 8 8 13 13 15 16 13 9 8 8 7 7 7 7 8 7 5 8 8 4 7 3 8 7 7
6 7 5 4 6 6 6 7 7 10 9 9 9 7 7 6 6 7 9 10 11 17 18 17 13 9 8 9 8 8 7 5 6 6 6 7 6 8 5 10 6 8 6
9 7 5 5 5 6 7 6 7 10 9 9 9 9 10 9 7 8 7 6 7 6 13 16 14 12 8 9 8 8 9 7 7 6 6 5 4 6 5 8 13 12 11
10 8 7 6 5 8 7 6 8 9 9 9 8 9 9 9 8 8 7 8 6 7 8 10 9 7 10 10 9 9 8 8 7 8 7 6 7 7 6 7 10 10 10
9 7 6 5 5 9 7 7 7 9 9 8 8 7 8 5 6 7 6 5 6 6 10 10 10 10 10 10 9 6 7 7 6 10 9 7 6 8 7 6 8 10 10
11 9 7 5 5 7 7 7 7 8 7 7 6 7 6 7 6 8 7 6 7 8 9 11 9 10 11 9 8 6 7 8 8 8 9 8 7 7 7 6 7 6 5
12 12 10 8 8 6 7 6 5 6 6 6 5 5 6 7 6 6 7 7 7 9 8 9 10 10 10 11 10 8 10 9 7 7 9 9 8 8 7 7 6 6 6
14 12 9 9 8 8 8 6 5 5 5 5 5 5 5 6 6 6 6 6 7 7 8 8 9 11 12 13 9 8 7 8 8 8 10 12 11 7 7 7 6 6 7
13 12 11 11 9 7 6 7 5 4 4 5 4 5 5 6 6 5 6 4 5 7 8 10 11 11 13 13 13 10 11 11 11 10 12 13 9 10 10 7 10 8 8
15 13 11 10 9 8 6 6 5 4 4 4 5 5 5 7 7 6 7 8 9 9 10 12 12 14 13 13 13 10 11 11 12 12 12 14 13 13 10 9 9 9 8
15 13 11 10 9 8 7 7 6 3 5 5 6 6 6 7 7 7 8 8 9 10 10 12 14 13 14 14 13 11 10 11 11 12 11 14 15 15 13 11 11 11 9
16 13 11 11 10 8 7 7 7 5 6 7 6 5 6 7 7 7 8 9 10 11 10 11 13 14 13 10 13 9 9 11 13 13 13 14 21 26 19 9 11 12 11
15 14 12 14 11 10 9 8 7 7 6 7 7 7 7 8 8 8 8 9 10 11 11 12 12 14 11 22 22 13 10 12 13 13 14 13 20 21 22 23 22 17 13
16 14 13 12 11 8 8 7 7 7 8 7 8 8 7 8 8 8 8 9 9 10 10 11 11 12 14 27 24 16 9 10 10 13 13 12 12 19 15 19 20 19 22
17 15 13 12 10 7 7 6 8 8 8 8 8 8 7 7 8 7 7 6 6 7 8 9 10 11 13 28 26 22 9 8 11 11 14 14 14 19 18 15 14 13 12
12 13 14 13 11 8 7 7 8 9 9 8 8 7 7 6 6 5 5 5 6 5 6 6 8 11 11 27 27 17 11 9 11 12 11 13 12 25 27 15 15 14 13
16 16 15 13 11 7 3 7 7 9 7 9 9 8 7 5 4 4 3 3 5 4 5 7 8 17 10 25 26 19 8 9 8 9 9 22 18 25 26 13 13 14 14
17 17 15 11 10 6 5 6 9 8 7 7 8 8 8 6 6 4 3 3 3 3 4 7 8 9 13 14 25 25 9 8 7 7 8 7 24 24 25 23 15 16 12
16 15 13 11 10 10 11 9 7 5 9 8 7 4 5 5 4 3 3 3 3 4 5 6 7 7 10 22 23 23 21 17 6 6 5 7 22 23 24 17 26 25 12
13 12 13 13 12 13 12 12 11 10 10 8 5 4 4 4 6 6 6 5 5 5 6 6 6 7 7 6 19 21 21 17 6 4 13 18 19 20 14 25 24 15 11
12 12 14 14 13 12 13 12 13 12 11 10 9 7 6 6 6 7 7 7 6 6 6 6 6 6 6 6 5 5 8 11 8 6 6 8 10 9 6 8 10 9 10
11 12 12 12 13 12 12 13 12 12 10 9 8 8 7 8 7 7 6 6 5 6 5 5 5 4 5 6 12 10 3 5 6 4 2 3 4 6 7 7 9 8 8
10 10 10 10 10 10 10 9 9 9 9 8 6 5 4 8 8 7 6 11 11 12 13 13 8 3 8 13 17 18 14 17 18 5 6 7 8 9 10 10 10 10 11
Wind_Direction
124 111 82 74 52 43 28 28 30 25 14 17 22 1 359 48 41 23 22 18 32 28 22 6 2 10 359 352 348 346 340 335 332 315 330 295 224 238 244 252 239 221 219
160 123 91 69 54 36 23 29 26 24 16 358 2 353 352 42 43 89 48 35 18 33 18 4 6 358 348 355 353 349 336 323 5 332 294 303 331 245 274 264 255 255 239
140 133 99 63 40 41 30 25 25 17 25 1 8 0 347 4 22 18 30 25 38 26 30 3 3 358 355 354 356 346 352 329 331 341 320 328 323 337 301 295 243 239 212
156 102 82 83 61 54 51 36 31 44 25 21 12 5 4 9 0 12 360 4 26 27 27 8 0 357 352 353 345 348 338 337 328 333 333 326 322 317 313 324 325 257 233
122 114 127 111 85 59 46 38 38 55 38 28 22 14 12 3 349 8 350 8 1 12 18 1 0 357 354 344 345 342 342 330 326 325 318 311 297 294 284 296 324 326 331
140 146 141 120 93 75 56 41 33 55 40 26 25 18 8 9 2 2 3 1 1 7 10 359 352 358 352 344 339 341 336 329 326 323 319 320 329 335 311 305 299 300 304
155 164 147 130 90 82 53 35 42 50 41 35 28 22 14 11 13 15 5 4 6 3 1 354 357 356 347 348 342 338 346 356 355 341 338 337 334 316 306 301 296 296 303
157 155 140 119 102 87 59 40 34 51 40 30 30 32 28 19 26 19 13 12 13 6 3 357 352 358 355 356 353 2 5 0 7 4 1 340 338 348 340 322 308 302 291
165 158 153 143 124 90 78 55 36 48 45 40 35 36 34 38 28 34 17 24 19 14 8 3 358 10 12 15 12 14 13 21 15 13 5 7 345 342 336 326 320 318 308
168 173 171 153 119 112 103 88 66 54 51 51 43 52 42 40 37 41 30 30 26 16 15 8 7 20 16 19 21 15 19 21 21 23 13 6 351 349 339 332 315 302 287
175 178 160 152 132 131 118 106 90 78 68 59 50 54 53 49 45 39 38 32 31 17 12 18 24 26 18 15 17 19 23 25 26 24 21 13 359 355 345 335 329 329 333
182 177 175 155 143 134 121 116 118 97 93 103 68 57 53 54 54 51 47 26 49 30 18 23 32 27 24 16 3 20 23 26 23 25 27 17 2 360 357 0 351 348 329
182 189 165 156 147 132 135 126 116 113 104 94 80 59 47 52 43 33 36 32 34 21 33 29 32 29 25 15 359 24 22 24 26 19 36 19 7 2 5 9 0 354 347
183 187 171 152 138 146 144 138 136 119 101 76 66 61 51 54 50 41 41 37 38 33 32 40 29 39 19 9 359 24 25 25 27 18 31 26 11 5 4 10 10 359 360
185 182 172 145 141 150 152 140 142 142 118 102 90 71 69 54 52 44 44 43 41 30 29 44 40 24 27 10 359 3 39 29 30 19 15 30 18 10 13 17 17 12 12
186 176 172 149 157 164 158 159 146 119 94 93 85 74 63 60 53 49 51 48 50 44 32 29 47 31 25 14 8 21 32 36 39 23 13 20 18 10 11 20 20 26 17
175 174 155 156 147 160 143 158 132 123 113 108 98 87 76 73 56 51 56 56 51 54 46 34 36 34 24 20 14 44 33 44 47 38 22 17 14 13 10 12 16 17 24
162 162 138 129 134 142 146 158 133 113 107 93 83 78 82 77 77 66 54 71 71 61 56 48 37 34 25 28 20 18 38 44 44 44 30 18 11 16 19 10 13 9 8
135 124 123 123 133 153 171 143 126 116 107 97 88 88 81 74 78 71 64 55 61 71 72 58 52 41 25 32 32 24 13 30 40 32 21 24 12 19 23 14 11 7 6
119 121 124 128 129 141 185 133 132 104 99 119 127 117 103 85 76 88 83 67 75 59 83 74 54 49 30 30 35 37 16 28 34 28 18 18 24 21 24 24 15 14 0
120 120 122 121 127 138 106 104 109 119 127 99 90 107 111 114 114 100 80 77 69 73 69 84 68 48 40 24 31 33 26 20 26 23 17 9 24 23 27 29 24 19 357
123 124 124 129 138 141 125 118 123 146 111 112 113 113 105 107 105 106 104 69 85 68 62 63 65 54 35 28 25 28 30 23 13 25 12 7 26 26 25 28 27 21 10
127 130 132 148 159 165 159 152 151 128 124 117 119 121 96 102 97 70 58 52 54 48 58 57 48 47 34 22 22 21 20 15 357 21 28 24 23 28 23 25 27 20 16
141 147 156 165 165 163 165 151 156 151 149 150 152 149 120 83 80 89 65 53 36 48 40 58 44 43 28 13 5 4 358 352 350 12 18 13 16 23 16 17 21 23 21
149 162 170 164 161 158 144 157 165 163 148 140 139 141 129 107 87 60 92 91 70 71 67 40 66 45 20 10 12 8 345 359 346 19 10 13 10 16 25 22 18 21 18
159 166 162 142 143 141 141 152 146 141 144 147 148 141 131 142 136 127 102 98 111 96 86 76 61 20 20 17 19 9 14 23 22 22 26 21 17 16 19 15 12 8 11